Weather History for MROC - September, 2011

Change the Weather History Date:

Wednesday, September 21, 2011

  Actual Average Record
Temperature  
Mean Temperature 72 °F -  
Max Temperature 81 °F 78 °F 84 °F (1997)
Min Temperature 64 °F 64 °F 62 °F (1997)
Cooling Degree Days 8    
Growing Degree Days 22 (Base 50)    
Moisture  
Dew Point 67 °F    
Average Humidity 85    
Maximum Humidity 100    
Minimum Humidity 51    
Precipitation  
Precipitation 0.00 in 0.44 in - ()
Sea Level Pressure  
Sea Level Pressure 29.98 in    
Wind  
Wind Speed 4 mph ()    
Max Wind Speed 18 mph    
Max Gust Speed 23 mph    
Visibility 7.2 miles    
Events      
Averages and records for this station are not official NWS values.
T = Trace of Precipitation, MM = Missing Value Source: Averaged Metar Reports

Daily Weather History Graph

Daily Weather History Graph

Search for Another Location

Airport or City:

Trip Planner

Search our weather history database for the weather conditions in past years. The results will help you decide how hot, cold, wet, or windy it might be!

Date:

Astronomy

Sep. 21, 2011 Rise Set
Actual Time 5:26 AM CST 5:33 PM CST
Civil Twilight 5:05 AM CST 5:54 PM CST
Nautical Twilight 4:40 AM CST 6:19 PM CST
Astronomical Twilight 4:16 AM CST 6:43 PM CST
Moon No Moon Rise 12:44 PM CST (9/21)
Length of Visible Light 12h 49m
Length of Day
12h 07m
Last Quarter, 38% of the Moon is Illuminated
Sep 21
Last Quarter
Sep 27
New
Oct 3
First Quarter
Oct 11
Full
Oct 19
Last Quarter

Hourly Weather History & Observations

Time (CST) Temp. Heat Index Dew Point Humidity Pressure Visibility Wind Dir Wind Speed Gust Speed Precip Events Conditions
12:00 AM 68 °F - 68 °F 100% 29.84 in 6 mi Calm Calm - -   Mostly Cloudy
12:00 AM 68.0 °F - 68.0 °F 100% 30.02 in 6.2 mi Calm Calm - N/A   Mostly Cloudy
1:00 AM 68.0 °F - 68.0 °F 100% 30.00 in 6.2 mi Calm Calm - N/A   Scattered Clouds
2:00 AM 64.4 °F - 64.4 °F 100% 29.98 in 6.2 mi Calm Calm - N/A   Scattered Clouds
3:00 AM 64 °F - 64 °F 100% 29.87 in 12 mi ENE 4.6 mph - -   Scattered Clouds
3:00 AM 64.4 °F - 64.4 °F 100% 29.99 in 6.2 mi ENE 4.6 mph - N/A   Scattered Clouds
5:00 AM 66.2 °F - 62.6 °F 88% 30.00 in 6.2 mi East 5.8 mph - N/A   Scattered Clouds
6:00 AM 68 °F - 63 °F 78% 29.87 in 12 mi East 6.9 mph - -   Clear
6:00 AM 68.0 °F - 62.6 °F 83% 30.01 in - East 6.9 mph - N/A   Clear
7:00 AM 71.6 °F - 64.4 °F 78% 30.03 in - East 2.3 mph - N/A   Clear
8:00 AM 77.0 °F - 59.0 °F 54% 30.03 in - ESE 11.5 mph - N/A   Clear
9:00 AM 78.8 °F - 60.8 °F 54% 30.03 in - SE 12.7 mph - N/A   Clear
10:00 AM 80.6 °F 81.5 °F 60.8 °F 51% 30.02 in 6.2 mi ESE 11.5 mph 23.0 mph N/A   Mostly Cloudy
11:00 AM 82.4 °F 83.9 °F 64.4 °F 54% 30.02 in 6.2 mi SE 18.4 mph - N/A   Mostly Cloudy
12:00 PM 82.4 °F 83.9 °F 64.4 °F 54% 30.00 in 6.2 mi East 11.5 mph - N/A   Mostly Cloudy
1:00 PM 82.4 °F 83.9 °F 64.4 °F 54% 29.97 in 6.2 mi SE 11.5 mph - N/A   Mostly Cloudy
2:00 PM 78.8 °F - 64.4 °F 61% 29.95 in 6.2 mi SSE 6.9 mph - N/A   Mostly Cloudy
3:00 PM 73 °F - 72 °F 94% 29.82 in 12 mi West 9.2 mph - -   Scattered Clouds
3:00 PM 73.4 °F - 71.6 °F 94% 29.96 in 6.2 mi West 9.2 mph - N/A   Mostly Cloudy
4:00 PM 71.6 °F - 71.6 °F 100% 29.97 in 6.2 mi West 5.8 mph - N/A   Mostly Cloudy
5:00 PM 71.6 °F - 71.6 °F 100% 29.98 in 6.2 mi West 3.5 mph - N/A   Scattered Clouds
6:00 PM 72 °F - 70 °F 91% 29.85 in 12 mi WNW 1.2 mph - -   Scattered Clouds
6:00 PM 71.6 °F - 69.8 °F 94% 30.00 in 6.2 mi WNW 1.2 mph - N/A   Scattered Clouds
7:00 PM 69.8 °F - 69.8 °F 100% 30.02 in 6.2 mi WNW 2.3 mph - N/A   Scattered Clouds
8:00 PM 69.8 °F - 69.8 °F 100% 30.04 in 6.2 mi Calm Calm - N/A   Mostly Cloudy
9:00 PM 71.6 °F - 71.6 °F 100% 30.07 in 6.2 mi Calm Calm - N/A   Scattered Clouds
10:00 PM 69.8 °F - 69.8 °F 100% 30.07 in 6.2 mi Calm Calm - N/A   Scattered Clouds
11:00 PM 68.0 °F - 68.0 °F 100% 30.06 in 6.2 mi Calm Calm - N/A   Scattered Clouds